Location: Saint-Palais-sur-Mer
(45.6429°N, 1.0859°W)
Time: 13:39:37
(UTC+02:00)

ISS - Visible Passes

Search period start: 24 July 2024 00:00
Search period end: 03 August 2024 00:00
Orbit: 409 x 423 km, 51.6° (Epoch: 24 July)

Date Brightness Start Highest point End Pass type
(mag) Time Alt. Az. Time Alt. Az. Time Alt. Az.
24 Jul -3.8 23:00:53 10° WNW 23:04:12 74° SSW 23:06:08 22° SE visible
25 Jul -3.7 22:12:16 10° WNW 22:15:35 73° NNE 22:18:53 10° ESE visible
25 Jul -1.9 23:49:35 10° W 23:52:00 19° SW 23:52:07 19° SW visible
26 Jul -2.5 23:00:33 10° WNW 23:03:30 30° SW 23:05:15 18° S visible
27 Jul -3.2 22:11:42 10° WNW 22:14:55 49° SW 22:18:06 10° SE visible
28 Jul -1.2 23:00:59 10° WSW 23:02:28 12° SW 23:03:57 10° SSW visible
29 Jul -1.7 22:11:22 10° W 22:13:54 20° SW 22:16:26 10° S visible
